User: anonymous   Login
Location: Unspecified
(0.0000°N, 0.0000°E)
Time: 15:20:42
(UTC+00:00)
Language:

COSMOS 2484 - Orbit

View from above orbital plane
View from above orbital plane
View from above satellite
View from above satellite

Ground track
Ground track

The orbit data is extracted from the following two-line orbital elements,

1 39059U 13001C   18267.78729659 +.00000003 +00000-0 -51754-4 0  9998
2 39059 082.5050 176.7218 0026421 070.3061 290.0863 12.42875806258143
Epoch (UTC): 24 September 2018 18:53:42
Eccentricity: 0.0026421
inclination: 82.5050°
perigee height: 1473 km
apogee height: 1515 km
right ascension of ascending node: 176.7218°
argument of perigee: 70.3061°
revolutions per day: 12.42875806
mean anomaly at epoch: 290.0863°
orbit number at epoch: 25814

The dashed part of the orbit path shows where the satellite is in the earth's shadow,  

DLR